Location: ???????
(55.3754°N, 39.3545°E)
Time: 15:47:03
(UTC+00:00)

ATLAS 5 CENTAUR R/B - Pass Details

Date: 14 April 2026
Orbit: 360 x 1064 km, 63.3° (Epoch: 16 May)

Event Time Altitude Azimuth Distance (km) Brightness Sun altitude
Rises 21:32:02 0° 308° (NW) 2,553 5.2 -24.9°
Reaches altitude 10° 21:34:00 10° 305° (NW) 1,757 4.2 -24.9°
Enters shadow 21:36:22 36° 291° (WNW) 906 2.5 -24.9°
